User: anonymous   Login
Location: Haliburton Scout Reserve
(45.0900°N, 78.3200°W)
Time: 05:50:05
(UTC-04:00)
Language:

YUBILEINY - Orbit

View from above orbital plane
View from above orbital plane
View from above satellite
View from above satellite

Ground track
Ground track

The orbit data is extracted from the following two-line orbital elements,

1 32953U 08025A   22141.73894994  .00000021  00000-0  80971-4 0  9992
2 32953  82.5057 200.5415 0018228 321.5341  38.4441 12.43109889635012
Epoch (UTC): 21 May 2022 17:44:05
Eccentricity: 0.0018228
inclination: 82.5057°
perigee height: 1479 km
apogee height: 1508 km
right ascension of ascending node: 200.5415°
argument of perigee: 321.5341°
revolutions per day: 12.43109889
mean anomaly at epoch: 38.4441°
orbit number at epoch: 63501

The dashed part of the orbit path shows where the satellite is in the earth's shadow,  

DLR